This is the latest recevied weather packets stored in our database for station/object KI4NG. If no packets are shown the sender has not sent any weather packets the latest 10 day(s).
| Time | Temp. | Humidity | Pressure | Rain* | Wind** | Luminosity | Snow |
|---|---|---|---|---|---|---|---|
| 1777939546 | 20.56° C | 60% | 1012.4 hPa | 0 mm | - | 11 W/m² | - |
| 1777939244 | 20.56° C | 61% | 1012.6 hPa | 0 mm | - | 16 W/m² | - |
| 1777938940 | 21.11° C | 60% | 1012.4 hPa | 0 mm | - | 25 W/m² | - |
| 1777938637 | 21.11° C | 59% | 1012.4 hPa | 0 mm | - | 34 W/m² | - |
| 1777938334 | 21.11° C | 59% | 1012.4 hPa | 0 mm | - | 38 W/m² | - |
| 1777938031 | 21.67° C | 59% | 1012.3 hPa | 0 mm | - | 47 W/m² | - |
| 1777937726 | 21.67° C | 59% | 1012.3 hPa | 0 mm | - | 50 W/m² | - |
| 1777937424 | 21.67° C | 59% | 1012.4 hPa | 0 mm | - | 50 W/m² | - |
| 1777937121 | 21.67° C | 58% | 1012.3 hPa | 0 mm | - | 53 W/m² | - |
| 1777936819 | 22.22° C | 58% | 1012.4 hPa | 0 mm | - | 54 W/m² | - |
| 1777936515 | 22.22° C | 56% | 1012.5 hPa | 0 mm | - | 104 W/m² | - |
| 1777936211 | 22.22° C | 58% | 1012.6 hPa | 0 mm | - | 94 W/m² | - |
| 1777935907 | 22.22° C | 57% | 1012.4 hPa | 0 mm | - | 98 W/m² | - |
| 1777935606 | 22.22° C | 56% | 1012.4 hPa | 0 mm | - | 68 W/m² | - |
| 1777935303 | 22.22° C | 56% | 1012.4 hPa | 0 mm | - | 83 W/m² | - |
| 1777935000 | 22.22° C | 56% | 1012.2 hPa | 0 mm | - | 74 W/m² | - |
| 1777934696 | 22.22° C | 56% | 1012.4 hPa | 0 mm | - | 84 W/m² | - |
| 1777934394 | 22.78° C | 57% | 1012.5 hPa | 0 mm | - | 154 W/m² | - |
| 1777934090 | 22.78° C | 56% | 1012.5 hPa | 0 mm | - | 85 W/m² | - |
| 1777933786 | 23.33° C | 56% | 1012.3 hPa | 0 mm | - | 281 W/m² | - |
| 1777933483 | 23.33° C | 56% | 1012.4 hPa | 0 mm | - | 297 W/m² | - |
| 1777933181 | 23.33° C | 55% | 1012.5 hPa | 0 mm | - | 321 W/m² | - |
| 1777932878 | 23.33° C | 55% | 1012.6 hPa | 0 mm | - | 171 W/m² | - |
| 1777932574 | 23.33° C | 55% | 1012.5 hPa | 0 mm | - | 336 W/m² | - |
| 1777932271 | 23.33° C | 54% | 1012.5 hPa | 0 mm | - | 329 W/m² | - |
* Rain latest hour (hover to see other rain measurements)
** Current wind speed in m/s (hover to see current wind gust speed)